Regional Weather Roundup
Issued by NWS Kansas City/Pleasant Hill, MO

Home | Current Version | Previous Version | Text Only | Print | Product List | Glossary On
Versions: 1 2 3 4 5 6 7 8 9 10 11 12 13 14 15 16 17 18 19 20 21 22 23 24 25 26 27 28 29 30 31 32 33 34 35 36 37 38 39 40 41 42 43 44 45 46 47 48 49 50
447
ASUS43 KEAX 081110
RWREAX

WEATHER ROUNDUP FOR EASTERN KANSAS AND NORTHWEST MISSOURI
NATIONAL WEATHER SERVICE KANSAS CITY/PLEASANT HILL MO
500 AM CST THU DEC 08 2016

KSZ040-057-103>105-MOZ028-029-037-043-081200-
...KANSAS CITY METROPOLITAN AREA...

CITY           SKY/WX    TMP DP  RH WIND       PRES   REMARKS
K.C. INTL      CLEAR     16   5  62 NW12G21   30.51R WCI   3
K.C. DOWNTOWN  CLEAR     18   7  62 NW10      30.54R WCI   6
LEES SUMMIT    CLEAR     17   7  64 NW12      30.51R WCI   4
OLATHE - IXD   CLEAR     16   7  67 NW14      30.53R WCI   2
OLATHE - OJC   CLEAR     15   6  67 NW9G18    30.52R WCI   3
LAWRENCE       CLEAR     16   8  71 NW14      30.56S WCI   2

$$

MOZ001>008-011>017-020>025-030>033-038>040-044>046-053-054-081200-
...NORTHERN AND CENTRAL MISSOURI...

CITY           SKY/WX    TMP DP  RH WIND       PRES   REMARKS
ST. JOSEPH     CLEAR     15   6  67 NW12G21   30.54R WCI   2
MOSBY          SUNNY     19   9  63 NW6       30.52R WCI  11
WARRENSBURG    CLEAR     18   9  68 NW7       30.51R WCI   8
WHITEMAN AFB   CLEAR     18   9  68 W10       30.49R WCI   6
CLINTON        CLEAR     18  10  73 W9        30.52R WCI   6
SEDALIA        CLEAR     18   9  68 W8        30.49R WCI   8
WARSAW         NOT AVBL
CHILLICOTHE      N/A     17   7  64 NW10      30.49R WCI   5
KIRKSVILLE     CLEAR     15   8  73 W12       30.42R WCI   2

$$

MOZ041-047>049-056>058-063>065-088>090-097-081200-
...EASTERN AND SOUTHERN MISSOURI...

CITY           SKY/WX    TMP DP  RH WIND       PRES   REMARKS
ST. LOUIS INTL PTCLDY    23  10  57 W17       30.41R WCI   9
SPIRIT OF STL  PTCLDY    22  12  65 W10       30.43R WCI  11
COLUMBIA       CLEAR     19  10  68 NW10      30.45R WCI   7
JEFFERSON CITY PTCLDY    20  11  68 W10       30.49R WCI   9
ROLLA          CLEAR     18  10  71 W10       30.42R WCI   6
OSAGE BEACH    PTCLDY    20  11  68 NW8       30.49R WCI  10
SPRINGFIELD    CLOUDY    19  12  74 W7        30.48R WCI  10
BRANSON        PTCLDY    21  12  68 NW9       30.50R WCI  11
JOPLIN         CLOUDY    18  11  74 W6        30.57R WCI  10
WEST PLAINS    CLEAR     21  13  71 NW7       30.45R WCI  12

$$

IAZ060-094-KSZ022-034>040-054-083-096-NEZ052-066-093-081200-
...KANSAS...SOUTHEAST NEBRASKA AND IOWA...

CITY           SKY/WX    TMP DP  RH WIND       PRES   REMARKS
TOPEKA         CLEAR     16   7  67 W9        30.58R WCI   4
MANHATTAN      CLEAR     16   5  62 NW7       30.60S WCI   6
EMPORIA        CLEAR     14   7  73 NW9       30.57R WCI   2
CHANUTE        PTCLDY    17  10  74 NW9       30.57R WCI   6
WICHITA        CLEAR     18   7  62 N14       30.60S WCI   4
OMAHA          PTCLDY    12   4  70 NW20      30.52R WCI  -6
LINCOLN        CLEAR     12   2  64 NW15      30.56R WCI  -4
FALLS CITY     CLEAR     14   5  67 NW14      30.54R WCI  -1
LAMONI         CLEAR     13   6  74 W15       30.43R WCI  -3
DES MOINES     PTCLDY    13   4  67 NW18      30.41R WCI  -4

$$





USA.gov is the U.S. government's official web portal to all federal, state and local government web resources and services.